Tracking 23764 objects as of 17-Oct-2021
HD Live streaming from Space Station
objects crossing your sky now

STARLINK-3080

Track STARLINK-3080 now!
10-day predictions
STARLINK-3080 is classified as:


NORAD ID: 49161
Int'l Code: 2021-082AH
Perigee: 364.0 km
Apogee: 369.7 km
Inclination: 70.0 °
Period: 91.7 minutes
Semi major axis: 6737 km
RCS: Unknown
Launch date: September 14, 2021
Source: United States (US)
Launch site: AIR FORCE WESTERN TEST RANGE (AFWTR)
aabbcc
Your satellite tracking list
Your tracking list is empty




NASA's NSSDC Master Catalog

Two Line Element Set (TLE):
1 49161U 21082AH  21290.50001157 -.00021833  00000-0 -18174-3 0  9990
2 49161  70.0015  33.0205 0004242 287.3116  24.3946 15.69723828  6420
Source of the keplerian elements: AFSPC